Provincetown, MA

1:27 AM EDT on April 25, 2017 (GMT -0400)
Provincetown Municipal

Weather History for KPVC - January, 2013

Change the Weather History Date:

Sunday, January 20, 2013

  Actual Average Record
Temperature  
Mean Temperature 42 °F -  
Max Temperature 53 °F 32 °F 53 °F (2013)
Min Temperature 32 °F 22 °F 6 °F (2000)
Degree Days  
Heating Degree Days 22    
Moisture  
Dew Point 32 °F    
Average Humidity 64    
Maximum Humidity 87    
Minimum Humidity 41    
Precipitation  
Precipitation 0.00 in - - ()
Sea Level Pressure  
Sea Level Pressure 29.75 in    
Wind  
Wind Speed 20 mph (WSW)    
Max Wind Speed 32 mph    
Max Gust Speed 40 mph    
Visibility 10 miles    
Events      
Averages and records for this station are not official NWS values.
T = Trace of Precipitation, MM = Missing Value Source: NWS Daily Summary

Daily Weather History Graph

Daily Weather History Graph

Search for Another Location

Airport or City:

Trip Planner

Search our weather history database for the weather conditions in past years. The results will help you decide how hot, cold, wet, or windy it might be!

Date:

Astronomy

Jan. 20, 2013 Rise Set
Actual Time 7:03 AM EST 4:40 PM EST
Civil Twilight 6:33 AM EST 5:11 PM EST
Nautical Twilight 5:59 AM EST 5:45 PM EST
Astronomical Twilight 5:25 AM EST 6:18 PM EST
Moon 11:40 AM EST (1/20) 1:32 AM EST (1/20)
Length of Visible Light 10h 37m
Length of Day
9h 36m
Waxing Gibbous, 66% of the Moon is Illuminated
Jan 20
Waxing Gibbous
Jan 26
Full
Feb 3
Last Quarter
Feb 10
New
Feb 17
First Quarter

Hourly Weather History & Observations

Time (EST) Temp. Windchill Dew Point Humidity Pressure Visibility Wind Dir Wind Speed Gust Speed Precip Events Conditions
12:15 AM 44.6 °F 37.4 °F 39.2 °F 81% 29.94 in 10.0 mi SSW 16.1 mph - N/A   Mostly Cloudy
12:35 AM 44.6 °F 37.4 °F 41.0 °F 87% 29.93 in 10.0 mi SW 16.1 mph - N/A   Overcast
1:15 AM 46.4 °F 39.0 °F 42.8 °F 87% 29.92 in 10.0 mi SW 19.6 mph 24.2 mph N/A   Overcast
1:35 AM 46.4 °F 38.7 °F 42.8 °F 87% 29.91 in 10.0 mi SW 20.7 mph 29.9 mph N/A   Overcast
1:55 AM 46.4 °F 38.5 °F 42.8 °F 87% 29.90 in 10.0 mi SW 21.9 mph 26.5 mph N/A   Overcast
2:15 AM 46.4 °F 38.7 °F 42.8 °F 87% 29.88 in 10.0 mi SSW 20.7 mph 28.8 mph N/A   Scattered Clouds
2:35 AM 46.4 °F 38.7 °F 42.8 °F 87% 29.86 in 10.0 mi SSW 20.7 mph 29.9 mph N/A   Clear
3:15 AM 46.4 °F 38.7 °F 39.2 °F 76% 29.85 in 10.0 mi SW 20.7 mph 32.2 mph N/A   Clear
3:55 AM 44.6 °F 36.9 °F 39.2 °F 81% 29.83 in 10.0 mi SW 18.4 mph - N/A   Clear
4:15 AM 44.6 °F 36.9 °F 39.2 °F 81% 29.81 in 10.0 mi SW 18.4 mph 21.9 mph N/A   Clear
4:35 AM 44.6 °F 36.6 °F 37.4 °F 76% 29.80 in 10.0 mi SSW 19.6 mph 27.6 mph N/A   Clear
5:15 AM 44.6 °F 36.9 °F 37.4 °F 76% 29.78 in 10.0 mi SW 18.4 mph 27.6 mph N/A   Clear
5:35 AM 44.6 °F 36.9 °F 37.4 °F 76% 29.78 in 10.0 mi SW 18.4 mph 25.3 mph N/A   Clear
5:55 AM 44.6 °F 37.4 °F 39.2 °F 81% 29.77 in 10.0 mi SW 16.1 mph - N/A   Clear
6:35 AM 44.6 °F 36.6 °F 37.4 °F 76% 29.74 in 10.0 mi SSW 19.6 mph 26.5 mph N/A   Clear
6:55 AM 44.6 °F 36.6 °F 37.4 °F 76% 29.73 in 10.0 mi SSW 19.6 mph 26.5 mph N/A   Clear
7:15 AM 44.6 °F 36.6 °F 37.4 °F 76% 29.72 in 10.0 mi SSW 19.6 mph 29.9 mph N/A   Clear
7:35 AM 44.6 °F 36.9 °F 37.4 °F 76% 29.71 in 10.0 mi SSW 18.4 mph 25.3 mph N/A   Clear
7:55 AM 46.4 °F 39.0 °F 37.4 °F 71% 29.71 in 10.0 mi SW 19.6 mph 25.3 mph N/A   Clear
8:15 AM 46.4 °F 39.0 °F 37.4 °F 71% 29.71 in 10.0 mi SW 19.6 mph 29.9 mph N/A   Clear
8:35 AM 46.4 °F 38.7 °F 39.2 °F 76% 29.70 in 10.0 mi SW 20.7 mph 28.8 mph N/A   Clear
8:55 AM 46.4 °F 37.9 °F 37.4 °F 71% 29.69 in 10.0 mi SW 25.3 mph 33.4 mph N/A   Clear
9:15 AM 46.4 °F 38.3 °F 39.2 °F 76% 29.68 in 10.0 mi SW 23.0 mph 29.9 mph N/A   Clear
9:35 AM 48.2 °F - 37.4 °F 66% 29.67 in 10.0 mi SW 25.3 mph 36.8 mph N/A   Clear
9:55 AM 48.2 °F - 37.4 °F 66% 29.67 in 10.0 mi SW 26.5 mph 38.0 mph N/A   Clear
10:15 AM 48.2 °F - 39.2 °F 71% 29.67 in 10.0 mi SW 27.6 mph 35.7 mph N/A   Clear
10:35 AM 48.2 °F - 37.4 °F 66% 29.66 in 10.0 mi SW 26.5 mph 36.8 mph N/A   Clear
10:55 AM 48.2 °F - 37.4 °F 66% 29.65 in 10.0 mi SW 26.5 mph 33.4 mph N/A   Clear
11:15 AM 48.2 °F - 37.4 °F 66% 29.63 in 10.0 mi SW 21.9 mph 28.8 mph N/A   Clear
11:35 AM 48.2 °F - 37.4 °F 66% 29.61 in 10.0 mi SW 23.0 mph 27.6 mph N/A   Clear
11:55 AM 48.2 °F - 37.4 °F 66% 29.60 in 10.0 mi SW 24.2 mph 31.1 mph N/A   Clear
12:15 PM 48.2 °F - 37.4 °F 66% 29.59 in 10.0 mi SW 23.0 mph 31.1 mph N/A   Clear
12:55 PM 48.2 °F - 37.4 °F 66% 29.58 in 10.0 mi SW 20.7 mph 28.8 mph N/A   Clear
1:15 PM 50.0 °F - 37.4 °F 62% 29.58 in 10.0 mi SW 19.6 mph 24.2 mph N/A   Clear
1:35 PM 50.0 °F - 35.6 °F 58% 29.58 in 10.0 mi WSW 20.7 mph 24.2 mph N/A   Clear
1:55 PM 53.6 °F - 30.2 °F 41% 29.58 in 10.0 mi WSW 20.7 mph 31.1 mph N/A   Clear
2:15 PM 51.8 °F - 33.8 °F 50% 29.59 in 10.0 mi West 19.6 mph 25.3 mph N/A   Clear
2:35 PM 51.8 °F - 30.2 °F 44% 29.60 in 10.0 mi West 17.3 mph 28.8 mph N/A   Clear
2:55 PM 51.8 °F - 32.0 °F 47% 29.61 in 10.0 mi West 15.0 mph 25.3 mph N/A   Clear
3:15 PM 50.0 °F - 33.8 °F 54% 29.62 in 10.0 mi WSW 13.8 mph - N/A   Clear
3:35 PM 48.2 °F - 32.0 °F 54% 29.63 in 10.0 mi West 16.1 mph 21.9 mph N/A   Partly Cloudy
4:15 PM 44.6 °F 38.1 °F 35.6 °F 71% 29.66 in 10.0 mi WNW 13.8 mph 21.9 mph N/A   Scattered Clouds
4:35 PM 44.6 °F 37.8 °F 33.8 °F 66% 29.67 in 10.0 mi WNW 15.0 mph 23.0 mph N/A   Partly Cloudy
4:55 PM 44.6 °F 38.1 °F 33.8 °F 66% 29.68 in 10.0 mi WNW 13.8 mph 19.6 mph N/A   Clear
5:15 PM 44.6 °F 37.8 °F 35.6 °F 71% 29.70 in 10.0 mi West 15.0 mph - N/A   Partly Cloudy
5:35 PM 44.6 °F 38.4 °F 32.0 °F 61% 29.70 in 10.0 mi West 12.7 mph - N/A   Partly Cloudy
5:55 PM 44.6 °F 38.1 °F 30.2 °F 57% 29.72 in 10.0 mi WNW 13.8 mph 19.6 mph N/A   Partly Cloudy
6:15 PM 44.6 °F 38.1 °F 30.2 °F 57% 29.74 in 10.0 mi WNW 13.8 mph 17.3 mph N/A   Clear
6:35 PM 42.8 °F 33.3 °F 26.6 °F 53% 29.76 in 10.0 mi WNW 24.2 mph 29.9 mph N/A   Clear
7:15 PM 41.0 °F 30.0 °F 19.4 °F 42% 29.79 in 10.0 mi WNW 28.8 mph 36.8 mph N/A   Clear
7:55 PM 39.2 °F 28.0 °F 19.4 °F 45% 29.80 in 10.0 mi WNW 26.5 mph 34.5 mph N/A   Clear
8:15 PM 37.4 °F 26.9 °F 17.6 °F 45% 29.81 in 10.0 mi West 20.7 mph 33.4 mph N/A   Clear
8:35 PM 37.4 °F 26.1 °F 17.6 °F 45% 29.83 in 10.0 mi WNW 24.2 mph 31.1 mph N/A   Clear
8:55 PM 35.6 °F 23.2 °F 17.6 °F 48% 29.84 in 10.0 mi West 26.5 mph 34.5 mph N/A   Clear
9:15 PM 35.6 °F 22.5 °F 19.4 °F 52% 29.86 in 10.0 mi WNW 29.9 mph 34.5 mph N/A   Clear
9:35 PM 35.6 °F 22.3 °F 17.6 °F 48% 29.87 in 10.0 mi WNW 31.1 mph 38.0 mph N/A   Clear
9:55 PM 35.6 °F 23.4 °F 17.6 °F 48% 29.88 in 10.0 mi WNW 25.3 mph 34.5 mph N/A   Clear
10:15 PM 33.8 °F 19.6 °F 17.6 °F 52% 29.88 in 10.0 mi WNW 32.2 mph 39.1 mph N/A   Clear
10:35 PM 33.8 °F 20.3 °F 15.8 °F 48% 29.90 in 10.0 mi WNW 28.8 mph 38.0 mph N/A   Clear
10:55 PM 32.0 °F 18.4 °F 14.0 °F 48% 29.90 in 10.0 mi West 26.5 mph 40.3 mph N/A   Clear
11:15 PM 32.0 °F 18.4 °F 12.2 °F 44% 29.91 in 10.0 mi West 26.5 mph 35.7 mph N/A   Clear
11:35 PM 32.0 °F 19.2 °F 12.2 °F 44% 29.92 in 10.0 mi West 23.0 mph 33.4 mph N/A   Clear
11:55 PM 32.0 °F 18.9 °F 12.2 °F 44% 29.92 in 10.0 mi West 24.2 mph 29.9 mph N/A   Clear